#timestamp,LO_Frequency,Hit 
1504958415.1,286046989.2,N
1504958416.0,286046989.2,N
1504958435.8,286046989.1,N
1504958455.6,286046988.8,N
1504958475.5,286046993.0,N
1504958495.3,286046990.2,N
1504958515.1,286046988.6,N
1504958535.9,286046991.5,N
1504958555.7,286046988.9,N
1504958575.5,286046989.4,N
1504958595.4,286046987.9,P
1504958615.2,286046996.8,P
1504958635.0,286046998.6,N
1504958635.9,286046998.6,N
1504958655.8,286046997.0,N
1504958675.6,286046997.9,N
1504958695.4,286046996.8,N
1504958715.3,286046995.3,N
1504958735.1,286046996.3,N
1504958736.0,286046996.3,N
1504958755.8,286046995.5,N
1504958775.6,286046999.6,N
1504958795.5,286046995.1,N
1504958815.3,286046997.8,N
1504958835.1,286046994.3,N
1504958855.9,286046997.9,N
1504958875.7,286046997.4,N
1504958895.5,286046996.0,N
1504958915.4,286046994.8,N
1504958935.2,286046994.6,N
1504958955.0,286046992.0,N
1504958955.9,286046992.0,N
1504958975.8,286046993.0,N
1504958995.6,286046993.2,N
1504959015.4,286046988.6,P
1504959035.3,286046996.4,N
1504959055.1,286046996.2,N
1504959056.0,286046996.2,N
1504959075.8,286046993.6,N
1504959095.7,286046992.9,N
1504959115.5,286046992.8,N
1504959135.3,286046993.2,N
1504959155.2,286046990.8,P
1504959175.9,286046997.9,N
1504959195.7,286046995.0,N
1504959215.6,286046995.1,N
1504959235.4,286046995.4,N
1504959255.2,286046997.9,N
1504959275.1,286047000.9,N
1504959276.0,286047000.9,N
1504959295.8,286047000.0,N
1504959315.6,286047002.6,N
1504959335.5,286047001.9,N
1504959355.3,286047002.7,N
1504959375.1,286047000.0,N
1504959395.8,286047001.9,N
1504959415.7,286047008.2,N
1504959435.5,286047012.8,P
1504959455.3,286047016.0,N
1504959475.2,286047020.8,N
1504959495.0,286047022.2,N
1504959495.9,286047022.2,N
1504959515.7,286047023.3,N
1504959535.6,286047025.0,P
1504959555.4,286047007.3,N
1504959575.3,286047003.8,N
1504959595.1,286047004.5,N
1504959596.0,286047004.5,N
1504959615.8,286047005.8,N
1504959635.6,286047004.1,N
1504959655.5,286046999.7,N
1504959675.3,286047000.4,N
1504959695.1,286047002.1,N
1504959715.9,286047003.8,N
1504959735.7,286047000.1,N
1504959755.5,286047001.4,N
1504959775.4,286047001.7,N
1504959795.2,286046999.9,N
1504959815.0,286047000.5,N
1504959815.9,286047000.5,N
1504959835.8,286047002.3,N
1504959855.6,286047004.2,N
1504959875.4,286046999.9,N
1504959895.3,286046999.3,N
1504959915.1,286046998.0,N
1504959916.0,286046998.0,N
1504959935.8,286046997.3,N
1504959955.7,286046995.3,N
1504959975.5,286046995.9,N
1504959995.3,286046995.8,N
1504960015.1,286046992.7,N
1504960035.9,286046992.5,N
1504960055.7,286046993.1,N
1504960075.5,286046991.2,N
1504960095.4,286046989.7,N
1504960115.2,286046991.6,N
1504960135.0,286046989.4,N
1504960135.9,286046989.4,N
1504960155.8,286046989.6,N
1504960175.6,286046987.6,N
1504960195.4,286046987.3,N
1504960215.3,286046985.8,N
1504960235.1,286046988.1,N
1504960236.0,286046988.1,N
1504960255.8,286046985.7,N
1504960275.7,286046984.9,N
1504960295.5,286046982.7,P
1504960315.3,286046985.3,N
1504960335.2,286046985.7,P
1504960355.9,286046986.2,P
1504960375.7,286046996.7,P
1504960395.6,286046996.7,N
1504960415.4,286046996.5,N
1504960435.2,286046996.7,N
1504960455.1,286046996.5,N
1504960456.0,286046996.5,N
1504960475.8,286047001.2,N
1504960495.6,286047002.5,N
1504960515.5,286047003.0,N
1504960535.3,286047002.6,N
1504960555.1,286046998.2,N
1504960575.9,286046996.8,N
1504960595.7,286046997.8,N
1504960615.5,286046995.5,N
1504960635.3,286046993.4,N
1504960655.2,286046995.5,N
1504960675.0,286046995.8,N
1504960675.9,286046995.8,N
1504960695.7,286046994.0,N
1504960715.6,286046995.2,N
1504960735.4,286046995.3,N
1504960755.2,286046996.3,N
1504960775.1,286046993.3,N
1504960776.0,286046993.3,N
1504960795.8,286046994.9,N
1504960815.6,286046998.8,N
1504960835.5,286046999.6,N
1504960855.3,286046999.2,N
1504960875.1,286046999.4,N
1504960895.9,286046999.2,N
1504960915.7,286047001.0,N
1504960935.5,286046999.1,N
1504960955.4,286047001.0,N
1504960975.2,286046998.2,N
1504960995.0,286046999.3,N
1504960995.9,286046999.3,N
1504961015.8,286047000.4,N
1504961035.6,286047000.4,N
1504961055.4,286047002.0,N
1504961075.3,286047002.5,N
1504961095.1,286047003.3,N
1504961096.0,286047003.3,N
1504961115.8,286047006.0,N
1504961135.7,286047001.5,N
1504961155.5,286047002.4,N
1504961175.3,286047000.4,N
1504961195.1,286046999.5,N
1504961215.9,286046996.5,N
1504961235.7,286046997.1,N
1504961255.5,286046996.6,N
1504961275.4,286046997.2,N
1504961295.2,286046998.6,N
1504961315.0,286046996.9,N
1504961315.9,286046996.9,N
1504961335.8,286046995.6,N
1504961355.6,286046995.7,N
1504961375.4,286046993.7,N
1504961395.3,286046993.8,N
1504961415.1,286046994.3,N
1504961416.0,286046994.3,N
1504961435.8,286046992.4,N
1504961455.7,286046992.1,N
1504961475.5,286046991.2,N
1504961495.3,286046988.6,P
1504961515.2,286046993.0,N
1504961535.9,286046992.2,N
1504961555.7,286046990.1,N
1504961575.6,286046993.0,N
1504961595.4,286046992.9,N
1504961615.2,286046994.3,N
1504961635.1,286046996.1,N
1504961636.0,286046996.1,N
1504961655.1,286046995.1,N
1504961675.8,286046990.1,P
1504961695.7,286046997.1,N
1504961715.5,286046993.9,N
1504961735.4,286046992.0,P
1504961755.2,286046998.2,N
1504961775.0,286046999.2,N
1504961775.9,286046999.2,N
1504961795.8,286046996.5,N
1504961815.6,286046996.8,N
1504961835.4,286046999.9,N
1504961855.2,286046999.7,N
1504961875.1,286046999.7,N
1504961876.0,286046999.7,N
1504961895.8,286046998.3,N
1504961915.6,286046999.3,N
1504961935.5,286046996.8,N
1504961955.3,286046997.8,N
1504961975.1,286046993.4,N
1504961995.9,286046991.7,P
